EN

Hourly Weather Bulina

Today, 16 April, Friday

Time Temperature Precipitation Wind Pressure Humidity
00:00 -2°C° 0.1 mm 2 mps 727 mmHg 98%
01:00 -2°C° 0.1 mm 2 mps 726 mmHg 98%
02:00 -2°C° 0.1 mm 2 mps 726 mmHg 98%
03:00 -3°C° 0.1 mm 2 mps 726 mmHg 98%
04:00 -4°C° 0.1 mm 3 mps 726 mmHg 98%
05:00 -2°C° 0.1 mm 3 mps 726 mmHg 97%
06:00 -2°C° 0.1 mm 3 mps 726 mmHg 96%
07:00 -1°C° 0.1 mm 3 mps 726 mmHg 96%
08:00 -1°C° 0.1 mm 3 mps 726 mmHg 96%
09:00 0°C° 0.1 mm 3 mps 726 mmHg 97%
10:00 0°C° 0.1 mm 3 mps 727 mmHg 97%
11:00 -1°C° 0.1 mm 4 mps 727 mmHg 98%
12:00 -1°C° 0.1 mm 4 mps 727 mmHg 98%
13:00 -1°C° 0.1 mm 4 mps 727 mmHg 98%
14:00 -1°C° 0.3 mm 4 mps 727 mmHg 98%
15:00 -1°C° 0.3 mm 4 mps 727 mmHg 99%
16:00 0°C° 0.3 mm 3 mps 727 mmHg 99%
17:00 0°C° 0.4 mm 3 mps 727 mmHg 99%
18:00 0°C° 0.4 mm 3 mps 727 mmHg 99%
19:00 0°C° 0.4 mm 3 mps 727 mmHg 99%
20:00 0°C° 0.4 mm 3 mps 727 mmHg 99%
21:00 0°C° 0.4 mm 3 mps 727 mmHg 99%
22:00 +1°C° 0.4 mm 2 mps 727 mmHg 99%
23:00 +1°C° 0.5 mm 2 mps 727 mmHg 99%

Tomorrow, 17 April, Saturday

Time Temperature Precipitation Wind Pressure Humidity
00:00 +1°C° 0.5 mm 2 mps 727 mmHg 99%
01:00 +1°C° 0.5 mm 2 mps 727 mmHg 99%
02:00 +1°C° 0.2 mm 2 mps 727 mmHg 99%
03:00 +1°C° 0.2 mm 2 mps 727 mmHg 99%
04:00 +1°C° 0.2 mm 2 mps 727 mmHg 99%
05:00 +1°C° 0.1 mm 2 mps 727 mmHg 99%
06:00 +2°C° 0.1 mm 1 mps 727 mmHg 99%
07:00 +3°C° 0.1 mm 1 mps 727 mmHg 99%
08:00 +3°C° 0 mm 1 mps 727 mmHg 99%
09:00 +3°C° 0 mm 1 mps 727 mmHg 99%
10:00 +3°C° 0 mm 1 mps 727 mmHg 98%
11:00 +4°C° 0 mm 1 mps 727 mmHg 98%
12:00 +4°C° 0 mm 1 mps 727 mmHg 98%
13:00 +4°C° 0 mm 1 mps 727 mmHg 98%
14:00 +4°C° 0 mm 1 mps 727 mmHg 98%
15:00 +4°C° 0 mm 1 mps 727 mmHg 99%
16:00 +4°C° 0 mm 1 mps 727 mmHg 99%
17:00 +4°C° 0 mm 1 mps 727 mmHg 99%
18:00 +3°C° 0 mm 1 mps 727 mmHg 99%
19:00 +2°C° 0 mm 0 mps 728 mmHg 99%
20:00 +2°C° 0 mm 0 mps 728 mmHg 99%
21:00 +2°C° 0 mm 0 mps 728 mmHg 99%
22:00 +2°C° 0 mm 0 mps 728 mmHg 99%
23:00 +2°C° 0 mm 0 mps 727 mmHg 99%

Day after tomorrow, 18 April, Sunday

Time Temperature Precipitation Wind Pressure Humidity
00:00 +2°C° 0 mm 0 mps 727 mmHg 99%
01:00 +2°C° 0 mm 0 mps 727 mmHg 99%
02:00 +2°C° 0 mm 0 mps 727 mmHg 99%
03:00 +2°C° 0 mm 0 mps 727 mmHg 99%
04:00 +2°C° 0 mm 0 mps 727 mmHg 99%
05:00 +2°C° 0 mm 0 mps 727 mmHg 99%
06:00 +2°C° 0 mm 0 mps 727 mmHg 99%
07:00 +4°C° 0 mm 1 mps 727 mmHg 98%
08:00 +5°C° 0 mm 1 mps 727 mmHg 95%
09:00 +6°C° 0 mm 1 mps 727 mmHg 91%
10:00 +6°C° 0 mm 2 mps 727 mmHg 87%
11:00 +6°C° 0 mm 2 mps 727 mmHg 85%
12:00 +7°C° 0 mm 2 mps 727 mmHg 83%
13:00 +7°C° 0 mm 2 mps 727 mmHg 82%
14:00 +8°C° 0.1 mm 2 mps 726 mmHg 84%
15:00 +8°C° 0.1 mm 2 mps 726 mmHg 85%
16:00 +8°C° 0.1 mm 2 mps 726 mmHg 87%
17:00 +8°C° 0.1 mm 1 mps 726 mmHg 90%
18:00 +7°C° 0.1 mm 1 mps 726 mmHg 93%
19:00 +5°C° 0.1 mm 0 mps 726 mmHg 96%
20:00 +5°C° 0.2 mm 0 mps 726 mmHg 97%
21:00 +6°C° 0.2 mm 1 mps 726 mmHg 97%
22:00 +6°C° 0.2 mm 1 mps 726 mmHg 98%
23:00 +6°C° 0.2 mm 1 mps 725 mmHg 98%

19 April, Monday

Time Temperature Precipitation Wind Pressure Humidity
00:00 +6°C° 0.2 mm 1 mps 725 mmHg 98%
01:00 +6°C° 0.2 mm 1 mps 725 mmHg 99%
02:00 +6°C° 0.1 mm 1 mps 725 mmHg 99%
03:00 +6°C° 0.1 mm 1 mps 725 mmHg 99%
04:00 +6°C° 0.1 mm 1 mps 725 mmHg 99%
05:00 +6°C° 0.1 mm 1 mps 725 mmHg 98%
06:00 +6°C° 0.1 mm 2 mps 725 mmHg 98%
07:00 +6°C° 0.1 mm 2 mps 725 mmHg 98%
08:00 +6°C° 0.1 mm 2 mps 725 mmHg 95%
09:00 +6°C° 0.1 mm 2 mps 725 mmHg 93%
10:00 +7°C° 0.1 mm 3 mps 725 mmHg 90%
11:00 +7°C° 0.1 mm 3 mps 725 mmHg 87%
12:00 +8°C° 0.1 mm 2 mps 724 mmHg 83%
13:00 +8°C° 0.1 mm 2 mps 724 mmHg 79%
14:00 +8°C° 0.1 mm 2 mps 724 mmHg 80%
15:00 +8°C° 0.1 mm 3 mps 724 mmHg 81%
16:00 +7°C° 0.1 mm 3 mps 723 mmHg 82%
17:00 +7°C° 0.1 mm 2 mps 724 mmHg 84%
18:00 +7°C° 0.1 mm 1 mps 724 mmHg 85%
19:00 +6°C° 0.1 mm 1 mps 724 mmHg 86%
20:00 +6°C° 0 mm 1 mps 724 mmHg 88%
21:00 +6°C° 0 mm 1 mps 723 mmHg 89%
22:00 +6°C° 0 mm 1 mps 723 mmHg 91%
23:00 +5°C° 0 mm 1 mps 723 mmHg 92%

20 April, Tuesday

Time Temperature Precipitation Wind Pressure Humidity
00:00 +5°C° 0 mm 1 mps 723 mmHg 92%
01:00 +5°C° 0 mm 1 mps 722 mmHg 93%
02:00 +5°C° 0.1 mm 1 mps 722 mmHg 94%
03:00 +5°C° 0.1 mm 1 mps 722 mmHg 95%
04:00 +5°C° 0.1 mm 1 mps 722 mmHg 95%
05:00 +4°C° 0.1 mm 2 mps 722 mmHg 93%
06:00 +5°C° 0.1 mm 2 mps 722 mmHg 91%
07:00 +5°C° 0.1 mm 2 mps 722 mmHg 89%
08:00 +6°C° 0.2 mm 2 mps 722 mmHg 88%
09:00 +5°C° 0.2 mm 3 mps 722 mmHg 86%
10:00 +5°C° 0.2 mm 3 mps 722 mmHg 84%
11:00 +7°C° 0.3 mm 3 mps 722 mmHg 83%
12:00 +7°C° 0.3 mm 3 mps 722 mmHg 82%
13:00 +7°C° 0.3 mm 4 mps 721 mmHg 80%
14:00 +7°C° 0.3 mm 4 mps 721 mmHg 80%
15:00 +8°C° 0.3 mm 3 mps 721 mmHg 80%
16:00 +8°C° 0.3 mm 3 mps 721 mmHg 80%
17:00 +7°C° 0.2 mm 3 mps 721 mmHg 82%
18:00 +6°C° 0.2 mm 2 mps 721 mmHg 85%
19:00 +6°C° 0.2 mm 2 mps 721 mmHg 88%
20:00 +5°C° 0.1 mm 2 mps 721 mmHg 89%
21:00 +5°C° 0.1 mm 2 mps 721 mmHg 91%
22:00 +4°C° 0.1 mm 2 mps 721 mmHg 92%
23:00 +4°C° 0 mm 2 mps 721 mmHg 92%

21 April, Wednesday

Time Temperature Precipitation Wind Pressure Humidity
00:00 +4°C° 0 mm 2 mps 721 mmHg 92%
01:00 +3°C° 0 mm 2 mps 720 mmHg 92%
02:00 +3°C° 0 mm 2 mps 720 mmHg 92%
03:00 +3°C° 0 mm 2 mps 720 mmHg 92%
04:00 +3°C° 0 mm 2 mps 720 mmHg 92%
05:00 +3°C° 0 mm 3 mps 721 mmHg 89%
06:00 +4°C° 0 mm 3 mps 721 mmHg 86%
07:00 +5°C° 0 mm 3 mps 721 mmHg 83%
08:00 +7°C° 0.2 mm 3 mps 721 mmHg 82%
09:00 +6°C° 0.2 mm 4 mps 722 mmHg 82%
10:00 +7°C° 0.2 mm 4 mps 722 mmHg 81%
11:00 +8°C° 0.1 mm 4 mps 722 mmHg 76%
12:00 +8°C° 0.1 mm 4 mps 722 mmHg 70%
13:00 +10°C° 0.1 mm 4 mps 722 mmHg 65%
14:00 +10°C° 0 mm 3 mps 722 mmHg 64%
15:00 +10°C° 0 mm 3 mps 722 mmHg 63%
16:00 +10°C° 0 mm 3 mps 723 mmHg 62%
17:00 +9°C° 0 mm 2 mps 723 mmHg 68%
18:00 +8°C° 0 mm 1 mps 723 mmHg 74%
19:00 +7°C° 0 mm 1 mps 723 mmHg 80%
20:00 +6°C° 0 mm 1 mps 723 mmHg 82%
21:00 +6°C° 0 mm 1 mps 724 mmHg 83%
22:00 +5°C° 0 mm 1 mps 724 mmHg 85%
23:00 +5°C° 0 mm 1 mps 724 mmHg 85%
Show more

We Need Your Consent

Meteoprog and our Service Providers may store and access personal data such as cookies, device identifiers or other similar technologies on your device and process such data to personalise content and ads, as well as provide social media features and to analyse the traffic.

  • Store and/or access information on your device

    Cookies, device identifiers or other information can be stored or accessed on your device for the purposes indicated above.

  • Personalised ads and content, ad and content measurement, audience insights, and products development

    Ads and content can be personalised based on a profile. More data can be added to better personalise ads and content. Ad and content performance can be measured. Insights about the audience who saw the ads and content can be derived. Such data can be used to develop or improve user’s experience, systems and software.

By clicking ‘I Agree’ you will allow the use of indicated cookies, device identifiers, web beacons or other similar technologies. Your settings can be changed in the browser on your device.

For certain purposes, legitimate interests may be relied on, rather than consent. You can read more about this in our Privacy and Cookie Policy.